Location: San José
(9.9281°N, 84.0907°W)
Time: 06:08:33
(UTC-06:00)

ISS - Visible Passes

Search period start: 09 December 2025 00:00
Search period end: 19 December 2025 00:00
Orbit: 416 x 421 km, 51.6° (Epoch: 08 December)

Date Brightness Start Highest point End Pass type
(mag) Time Alt. Az. Time Alt. Az. Time Alt. Az.
09 Dec -0.5 04:40:31 10° SSE 04:42:51 17° SE 04:45:10 10° E visible
11 Dec -3.9 04:40:22 10° SW 04:43:42 84° WNW 04:47:03 10° NE visible
12 Dec -2.0 03:56:39 32° E 03:56:39 32° E 03:58:58 10° NE visible
13 Dec -1.3 04:46:41 10° N 04:46:41 10° N 04:46:47 10° N visible
